Location: Wells
(51.2093°N, 2.6446°W)
Time: 07:10:56
(UTC+01:00)

PCSat - Pass Details

Date: 13 March 2026
Orbit: 780 x 790 km, 67.1° (Epoch: 13 April)

Event Time Altitude Azimuth Distance (km) Brightness Sun altitude
Exits shadow 03:15:25 12° 326° (NW) 2,251 11.9 -29.4°
Maximum altitude 03:17:54 15° 355° (N) 2,028 12.0 -29.1°
Drops below altitude 10° 03:20:59 10° 30° (NNE) 2,365 12.8 -28.7°
Sets 03:24:31 0° 53° (NE) 3,295 14.0 -28.3°
